Regional Weather Roundup
Issued by NWS

Home | Current Version | Previous Version | Graphics & Text | Print | Product List | Glossary Off
Versions: 1 2 3 4 5 6 7 8 9 10 11 12 13 14 15 16 17 18 19 20 21 22 23 24 25 26 27 28 29 30 31 32 33 34 35 36 37 38 39 40 41 42 43 44 45 46 47 48 49 50

000
ASUS43 KMPX 180401
RWRMN
WEATHER ROUNDUP FOR MINNESOTA
NATIONAL WEATHER SERVICE TWIN CITIES/CHANHASSEN MN
1000 PM CST WED DEC 17 2014


NOTE: "FAIR" INDICATES FEW OR NO CLOUDS BELOW 12,000 FEET WITH NO
SIGNIFICANT WEATHER AND/OR OBSTRUCTIONS TO VISIBILITY. N/A MEANS
CURRENT SKY AND/OR WEATHER CONDITIONS ARE NOT AVAILABLE.

MNZ060>063-068>070-180500-
   Twin Cities Metro

CITY           SKY/WX    TMP DP  RH WIND       PRES   REMARKS
TWIN CITIES    PTCLDY    16   9  74 N3        30.33S
ST PAUL        CLEAR     14  11  87 CALM      30.35S
CRYSTAL        FAIR      12   8  84 CALM      30.32S
BLAINE         CLEAR     12  10  92 CALM      30.32S
LAKEVILLE      PTCLDY    10   9  92 CALM      30.31F
EDEN PRAIRIE   PTCLDY    14   9  80 N3        30.31F
SOUTH ST PAUL  PTCLDY    14  10  85 CALM      30.33F
LAKE ELMO      FAIR      10   9  92 CALM      30.34S
$$
MNZ001>005-007-008-013>017-022>024-027-028-180500-
   Northwest Minnesota

CITY           SKY/WX    TMP DP  RH WIND       PRES   REMARKS
BEMIDJI        PTCLDY     6   2  84 CALM      30.29R
HALLOCK        CLEAR      7   1  78 CALM      30.31S
ROSEAU         FAIR       7   1  78 CALM      30.31S
WARROAD        PTCLDY     3   0  85 CALM      30.31S
THIEF RVR FALL CLEAR     12  10  92 E7        30.29S WCI   2
CROOKSTON      PTCLDY     7   5  92 W3        30.34R
FOSSTON        FAIR       3   1  92 CALM      30.29S
DETROIT LAKES  PTCLDY    12   9  85 CALM      30.29S
MOORHEAD       PTCLDY     9   9 100 CALM      30.33S
PARK RAPIDS    PTCLDY     6   2  83 CALM      30.28R
MAHNOMEN       FAIR       8   6  88 E6        30.28S WCI  -2
$$
MNZ006-009>011-018-025>026-180500-
   North Central Minnesota

CITY           SKY/WX    TMP DP  RH WIND       PRES   REMARKS
BAUDETTE       MOCLDY     5   0  79 CALM      30.30R
FLAG ISLAND    MOCLDY    10   7  85 CALM      30.31S
INTL FALLS     PTCLDY     6   0  76 E3        30.31R
WASKISH        MOCLDY     3   1  92 CALM      30.30S
BIG FORK       PTCLDY     5   1  85 MISG      30.30R
LONGVILLE      PTCLDY     3   1  92 CALM      30.29R
GRAND RAPIDS   CLEAR      7   1  78 CALM      30.27S
CRANE LAKE     PTCLDY    -2  -6  84 CALM      30.33S
ORR            PTCLDY     9   1  72 CALM      30.26R
COOK           PTCLDY     1   0  92 CALM      30.28S
WALKER         FAIR       7   4  91 CALM      30.29R
$$
MNZ012-019>021-037-180500-
   Northeast Minnesota

CITY           SKY/WX    TMP DP  RH WIND       PRES   REMARKS
DULUTH         CLOUDY    16  10  77 CALM      30.26R
ELY            PTCLDY     1   0  92 CALM      30.28S
HIBBING        PTCLDY     4  -1  80 CALM      30.28R
EVELETH        CLEAR      9   5  85 CALM      30.28R
DULUTH HARBOR  CLOUDY    25  19  80 N8        30.32R WCI  16
TWO HARBORS    CLOUDY    18  10  73 N5        30.27R WCI  11
SILVER BAY     PTCLDY    10   7  85 CALM      30.28S
GRAND MARAIS     N/A     17   6  62 N5        30.33F WCI  10
G MARAIS ARPRT PTCLDY     7   0  72 N7        30.24F WCI  -5
$$
MNZ029>031-032-039>041-046>048-054>057-064-180500-
   West Central Minnesota

CITY           SKY/WX    TMP DP  RH WIND       PRES   REMARKS
FERGUS FALLS   MOCLDY    10   9  92 CALM      30.34S
WHEATON        PTCLDY     3   1  92 CALM      30.31F
MORRIS         MOCLDY     7   3  85 N6        30.28F WCI  -3
ALEXANDRIA     PTCLDY    11   7  84 CALM      30.28F
ELBOW LAKE     FAIR       7   5  91 CALM      30.29S
WADENA         PTCLDY     5   3  92 CALM      30.28S
GLENWOOD       MOCLDY    10   9  92 E3        30.28F
APPLETON       PTCLDY     7   3  85 CALM      30.30S
BENSON         PTCLDY     7   3  85 CALM      30.29F
ORTONVILLE     FAIR       9   3  78 CALM      30.28F
MADISON        PTCLDY     9   5  85 CALM      30.29F
WILLMAR        FAIR      10   7  85 E3        30.29F
$$
MNZ033>034-036-042>043-049>051-058-059-180500-
   Central Minnesota

CITY           SKY/WX    TMP DP  RH WIND       PRES   REMARKS
ST CLOUD       MOCLDY    13   7  77 CALM      30.31S
SAUK CENTRE    FAIR       8   6  90 CALM      30.29F
PAYNESVILLE    PTCLDY     6   5  95 CALM      30.30F
AITKIN         PTCLDY     7   1  78 CALM      30.28S
PINE RIVER     PTCLDY     5   3  92 CALM      30.32R
BRAINERD       PTCLDY     6   3  87 CALM      30.30R
STAPLES        MOCLDY     7   7 100 CALM      30.29S
LONG PRAIRIE     N/A      9   7  92 CALM      30.29S
LITTLE FALLS   MOCLDY    10   9  92 CALM      30.32S
LITCHFIELD     PTCLDY    10  10 100 CALM      30.30F
BUFFALO        MOCLDY    11   8  89 CALM      30.33S
MAPLE LAKE     PTCLDY    11  10  94 CALM      30.32F
$$
MNZ037-044-045-052-053-180500-
   East Central Minnesota

CITY           SKY/WX    TMP DP  RH WIND       PRES   REMARKS
PRINCETON      PTCLDY     9   7  92 CALM      30.32R
MORA           MOCLDY    10   7  85 CALM      30.33R
CAMBRIDGE      PTCLDY    10   3  72 CALM      30.32R
RUSH CITY      PTCLDY     9   7  92 CALM      30.33S
MOOSE LAKE     PTCLDY     5   3  92 CALM      30.28S
HINCKLEY       MOCLDY    10   9  92 CALM      30.31S
CLOQUET        MOCLDY     9   5  85 CALM      30.28R
MCGREGOR       PTCLDY     9   5  85 CALM      30.30R
$$
MNZ071>073-080-081-089-090-097-098-180500-
   Southwest Minnesota

CITY           SKY/WX    TMP DP  RH WIND       PRES   REMARKS
MONTEVIDEO     PTCLDY     9   7  92 CALM      30.30F
GRANITE FALLS  PTCLDY     8   5  89 CALM      30.31S
CANBY          PTCLDY     5   3  91 CALM      30.29S
MARSHALL       PTCLDY     3   0  85 CALM      30.27S
REDWOOD FALLS  PTCLDY    10   7  87 NW3       30.28F
OLIVIA         PTCLDY    12  10  92 NW3       30.29S
PIPESTONE      PTCLDY     9   7  92 CALM      30.22S
WINDOM           N/A      7   5  92 CALM      30.26R
WORTHINGTON    PTCLDY     9   5  85 CALM      30.26R
JACKSON        PTCLDY    10   7  85 CALM      30.27R
TRACY          MOCLDY    10   8  90 CALM      30.27S
SLAYTON        PTCLDY     6   4  91 CALM      30.25S
$$
MNZ065>067-074>077-082>085-091>093-180500-
   South Central Minnesota

CITY           SKY/WX    TMP DP  RH WIND       PRES   REMARKS
MANKATO        CLOUDY    18  10  73 N3        30.28F
NEW ULM        FLURRIES  14  12  92 CALM      30.28F
ST JAMES       PTCLDY    10   9  92 CALM      30.29S
FAIRMONT       PTCLDY    10   9  92 N3        30.27R
GLENCOE        PTCLDY    13  11  92 CALM      30.30S
FARIBAULT      PTCLDY    14  10  85 NE3       30.30S
OWATONNA       PTCLDY    12   9  85 NE3       30.27F
WASECA         MOCLDY    14  12  92 NE3       30.29F
ALBERT LEA     CLOUDY    18  16  93 N6        30.25F WCI   9
$$
MNZ078>079-086>088-094>096-180500-
   Southeast Minnesota

CITY           SKY/WX    TMP DP  RH WIND       PRES   REMARKS
ROCHESTER      CLOUDY    16  11  80 N8        30.26F WCI   5
RED WING       PTCLDY    12   9  85 CALM      30.32F
STANTON        PTCLDY    12   9  87 CALM      30.30F
DODGE CENTER   PTCLDY    14  12  92 N3        30.26F
WINONA         PTCLDY    19  14  79 CALM      30.34S
AUSTIN         MOCLDY    16  12  86 NE5       30.26F WCI   9
PRESTON        CLOUDY    16  12  85 N5        30.26F WCI   8
$$
ABBREVIATIONS USED IN REMARKS
   TC - TEMPERATURES IN CELSIUS
  WCI - WIND CHILL INDEX
   HX - HEAT INDEX
  VSB - VISIBILITY
$$



USA.gov is the U.S. government's official web portal to all federal, state and local government web resources and services.